This is the latest recevied weather packets stored in our database for station/object KK6LVQ-13. If no packets are shown the sender has not sent any weather packets the latest 10 day(s).
| Time | Temp. | Humidity | Pressure | Rain* | Wind** | Luminosity | Snow |
|---|---|---|---|---|---|---|---|
| 1778115594 | 17.22° C | 77% | 1023.2 hPa | 0 mm | - | 211 W/m² | - |
| 1778115292 | 17.78° C | 77% | 1022.9 hPa | 0 mm | - | 226 W/m² | - |
| 1778114988 | 17.78° C | 76% | 1022.9 hPa | 0 mm | - | 242 W/m² | - |
| 1778114684 | 17.78° C | 76% | 1022.9 hPa | 0 mm | - | 259 W/m² | - |
| 1778114382 | 17.78° C | 75% | 1022.9 hPa | 0 mm | - | 275 W/m² | - |
| 1778114077 | 18.33° C | 75% | 1022.7 hPa | 0 mm | - | 290 W/m² | - |
| 1778113772 | 18.33° C | 74% | 1022.7 hPa | 0 mm | - | 306 W/m² | - |
| 1778113468 | 18.89° C | 74% | 1022.8 hPa | 0 mm | - | 322 W/m² | - |
| 1778113160 | 18.89° C | 73% | 1022.6 hPa | 0 mm | - | 340 W/m² | - |
| 1778112857 | 18.89° C | 72% | 1022.8 hPa | 0 mm | - | 357 W/m² | - |
| 1778112555 | 19.44° C | 71% | 1022.6 hPa | 0 mm | - | 374 W/m² | - |
| 1778112249 | 19.44° C | 71% | 1022.7 hPa | 0 mm | - | 390 W/m² | - |
| 1778111945 | 19.44° C | 71% | 1022.4 hPa | 0 mm | - | 404 W/m² | - |
| 1778111643 | 20° C | 70% | 1022.3 hPa | 0 mm | - | 420 W/m² | - |
| 1778111338 | 20° C | 70% | 1022.4 hPa | 0 mm | - | 436 W/m² | - |
| 1778111036 | 20° C | 70% | 1022.2 hPa | 0 mm | - | 451 W/m² | - |
| 1778110734 | 20° C | 69% | 1022.6 hPa | 0 mm | - | 465 W/m² | - |
| 1778110430 | 20.56° C | 69% | 1022.4 hPa | 0 mm | - | 480 W/m² | - |
| 1778110126 | 20° C | 69% | 1022.7 hPa | 0 mm | - | 495 W/m² | - |
| 1778109822 | 20.56° C | 68% | 1022.7 hPa | 0 mm | - | 509 W/m² | - |
| 1778109513 | 20.56° C | 68% | 1022.4 hPa | 0 mm | - | 520 W/m² | - |
| 1778109211 | 20° C | 69% | 1022.6 hPa | 0 mm | - | 536 W/m² | - |
| 1778108908 | 20.56° C | 69% | 1022.7 hPa | 0 mm | - | 549 W/m² | - |
| 1778108605 | 20.56° C | 68% | 1022.6 hPa | 0 mm | - | 564 W/m² | - |
| 1778108301 | 20.56° C | 67% | 1022.9 hPa | 0 mm | - | 578 W/m² | - |
* Rain latest hour (hover to see other rain measurements)
** Current wind speed in m/s (hover to see current wind gust speed)